Back to catalog

ONEWEB-0659

AliveCommunicationsPO
NORAD 54678·PAYLOAD·🇬🇧 United Kingdom

Launched Dec 8, 2022 from Cape Canaveral Space Force Station

Loading…

Next Passes (next 24 hours)

TLE

FreshSource: CelesTrak SupGP

Epoch: Sep 14, 2026, 12:18 UTC

1 54678C 22166AN  26257.51300185 -.00002985  00000+0 -72356-2 0  2579
2 54678  87.9273 226.2046 0002061  83.7894  25.8005 13.21831039    10

Track ONEWEB-0659 in real time with AllMySat

Download on the App Store